Weather in Salem

United States     44°57′09″N   123°01′46″W
temp.,
°C
wind,
m/s
gust,
m/s
humid.,
%
clouds,
%
prec.,
mm/h
press.,
hPa
HPBL,
m
16 may, sun
sun1623:00+11wnw11820 0.0 101513
02:00+10nw11885 0.0 101510
05:00+8nnw11910 0.0 101510
08:00+13n12743 0.0 1016196
11:00+20n12525 0.0 1015633
14:00+23ne22390 0.0 1013816
17:00+25n12415 0.0 1011905
20:00+17w38660 0.0 1011194
17 may, mon
mon1723:00+11wsw23903 0.0 101389
02:00+9ssw22978 0.0 101541
05:00+8ssw249841 0.0 101685
08:00+11ssw3584100 0.0 1017483
11:00+14ssw3471100 0.0 1017955
14:00+18ssw4654100 0.0 10161573
17:00+19wsw465081 0.0 10141771
20:00+14sw5106751 0.0 1016759
18 may, tue
tue1823:00+11ssw4108794 0.1 1017553
02:00+7w259532 0.6 1019129
05:00+5s229650 0.6 102220
08:00+8s358950 0.0 1023294
11:00+13sw455596 0.4 10221599
14:00+17w1435100 0.1 10202530
17:00+15nw5542100 0.1 10201526
20:00+11wnw4858100 0.0 1020469
19 may, wed
wed1923:00+5w1187100 0.0 102015
02:00+4w1196100 0.0 102010
05:00+3s1196100 0.0 102010
08:00+7sw128174 0.0 1021295
11:00+14wnw11513 0.1 10191403
14:00+13nw335377 0.3 10181545
17:00+14wnw444871 0.6 10161756
20:00+10wnw495712 0.4 1017464
20 may, thu
thu2023:00+4nw128713 0.4 101934
02:00+2ssw11930 0.0 101910
05:00+1ssw11956 0.0 102010
08:00+6ssw22815 0.0 1021250
11:00+13nne225123 0.0 10201454
14:00+16ne244337 0.0 10181639
17:00+15nw445345 0.1 10171448
20:00+11w596310 0.3 1018405